Weather in Klyuchi

Russia / Omsk Oblast     55°09′06″N   73°13′03″E
temp.,
°C
wind,
m/s
gust,
m/s
humid.,
%
clouds,
%
prec.,
mm/h
press.,
hPa
HPBL,
m
12 may, wed
wed1200:00+12w33460 0.0 102427
03:00+10wnw33546 0.0 102326
06:00+11wnw335796 0.0 102338
09:00+17nw464122 0.0 1022372
12:00+22nw6726100 0.0 10211740
15:00+21nw81137100 0.0 10201879
18:00+19nnw7103888 0.1 10201631
21:00+14nnw51148100 0.0 1021324
13 may, thu
thu1300:00+11nnw4125583 0.0 1022280
03:00+10nnw385699 0.0 1022173
06:00+10nw3553100 0.0 1022161
09:00+11wnw3756100 0.1 1022369
12:00+10e0072100 1.1 1021159
15:00+11e3373100 0.1 1019180
18:00+15n6964100 0.1 1020782
21:00+12nne338147 0.0 102132
14 may, fri
fri1400:00+10nnw348986 0.0 102372
03:00+9n4109214 0.0 1024218
06:00+7n39905 0.0 1027210
09:00+12n46582 0.0 1028636
12:00+16n45345 0.0 10281043
15:00+19nnw34275 0.0 10271352
18:00+20nw35255 0.0 10261376
21:00+16wsw334199 0.0 102615
15 may, sat
sat1500:00+14sw454585 0.0 102552
03:00+13sw475194 0.0 1024103
06:00+13wsw495759 0.0 1024169
09:00+20wsw6114079 0.1 1022435
12:00+25w693748 0.1 10211089
15:00+28wnw6103010 0.0 10192972
18:00+28wnw593192 0.0 10172247
21:00+22wnw334928 0.0 101735
16 may, sun
sun1600:00+19w46545 0.0 101669
03:00+16w4106221 0.3 1016155
06:00+16wsw48675 0.6 1015134
09:00+23w6104660 0.0 1014424
12:00+26nw8114068 0.0 10141541
15:00+26nw7939100 0.0 10142619
18:00+22n5105448 0.0 1016477
21:00+19nnw335949 0.0 101733